Uromiyeh, ایران

07:19 PM +0330 on دسامبر 11, 2018 (GMT +0330)
Uromiyeh | | Change Station

Elev 4341 ft 37.65 °N, 45.05 °E | Updated 19 minutes ago

صاف
صاف
50 °F
Feels Like 50 °F
N
16
باد متغير باد from WSW
Gusts 32 mph

امروز
High -- | Low -- °F
--% Chance of Precip.
دیروز
High -- | Low -- °F
Precip. -- در
فشار 30.01 در
ديد 6.2 مايل، ميل (در برابر كيلومتر
ابری Few 3500 ft
قطره شبنم 25 °F
رطوبت 37%
بارش باران 0.00 در
برف عمیق Not available.
7:34 AM 5:11 PM
Waxing Crescent, 17% visible
METAR OITR 111530Z 24014G28KT 9999 FEW035 10/M04 Q1016
فشار 30.01 در
ديد 6.2 مايل، ميل (در برابر كيلومتر
ابری Few 3500 ft
قطره شبنم 25 °F
رطوبت 37%
بارش باران 0.00 در
برف عمیق Not available.
7:34 AM 5:11 PM
Waxing Crescent, 17% visible
METAR OITR 111530Z 24014G28KT 9999 FEW035 10/M04 Q1016

Get Severe Weather Alerts

Thanks for signing up!

Be on the lookout for a verification email in your inbox.

You'll start receiving the daily forecast at 6 AM.

×

10-Day Weather Forecast

No radar image for this location.
×

Almanac

ستاره شناسی

Dec. 11, 2018 Rise Set
وقت حقیقی
تاریک و روشن اجتماعی
تاریک روشن دریایی
شفق و فلق نجومی
ماه
میزان روشنایی روز
طول روز
Tomorrow will be .
, % of the Moon is Illuminated

Today's Extremes

Country Highs Country Lows

Community

WunderPhotos

Category 6

Welcome to Category 6. This is the collective home for Weather Underground's featured writeups by Dr. Jeff Masters (right), Bob Henson (left), Chris Burt, and other regular contributors.

Nearby

تمیزی هوا

  تمیزی هوا AQ Index آلاینده
Not available.

عمق برف

Station Depth Elevation

Earthquake Activity

شهر Distance Mag. Time & Date
Minimum magnitude displayed is 2.5.

Coastal Water Temperatures

منطقه درجه حرارت

Stations

Nearby Weather Stations

Station Location دما باد سرد قطره شبنم رطوبت باد Precip. Elev ارتقا دادن Type